Weather in Balneário Camboriú

Brazil     26°59′30″S   48°37′52″W
temp.,
°C
wind,
m/s
gust,
m/s
humid.,
%
clouds,
%
prec.,
mm/h
press.,
hPa
HPBL,
m
8 may, sat
sat800:00+11sw11972 0.0 102627
03:00+10sw23972 0.0 102651
06:00+10wsw12950 0.0 102643
09:00+16sw12670 0.0 1028252
12:00+22ese11450 0.0 10271267
15:00+20ene32565 0.0 1025763
18:00+14ese11854 0.0 102610
21:00+13ssw11930 0.0 102821
9 may, sun
sun900:00+12sw11960 0.0 102730
03:00+11sw12989 0.0 102547
06:00+11wsw119721 0.0 102638
09:00+17sw126931 0.0 1027237
12:00+21ne016154 0.0 1026915
15:00+21ene227080 0.1 1024757
18:00+17ese119169 0.1 102416
21:00+15ssw119933 0.2 102511
10 may, mon
mon1000:00+16sw1197100 0.4 102441
03:00+16sw1198100 1.1 102361
06:00+16wsw1198100 0.2 102339
09:00+18w1193100 0.2 1024202
12:00+22nne137447 0.1 1022759
15:00+22ene237690 0.2 1019418
18:00+17ne119913 0.0 101938
21:00+17w119962 0.0 102020
11 may, tue
tue1100:00+17w119883 0.0 101926
03:00+17w1197100 0.0 101757
06:00+17wsw119771 0.0 101729
09:00+20w1181100 0.0 1018353
12:00+24e1164100 0.0 10161075
15:00+21e2279100 0.1 1014587
18:00+18ese1396100 0.3 1015110
21:00+17s1599100 6.0 1017287
12 may, wed
wed1200:00+16ese12100100 7.8 1016125
03:00+16s1499100 18.0 1015314
06:00+15ssw1299100 8.3 1015150
09:00+14se1199100 12.1 1018168
12:00+15nw0196100 0.1 1018185
15:00+17nne128667 0.1 1017449
18:00+16nne1287100 0.0 101785
21:00+16nnw118332 0.0 101830